Find Starlink 31449

NORAD ID: 58966 Int'l Des: 2024-031 Owner: SPXS Country: US Constellation: starlink operational
LEOCIRCULAR

リアルタイム位置

3D地球を読み込み中...

Starlink 31449について

説明を読み込み中...

次回通過

Passes for default location (London). Set your location on the main map for personalized predictions.

高度履歴

Loading altitude history...

軌道要素

1 58966U 24031B 26125.74802929 .00002262 00000-0 88499-4 0 9995
2 58966 53.1618 31.3428 0001051 71.2828 288.8286 15.30193843125272
Epoch: May 5, 2026 • Age: 9 hours

現在のステータス

高度 489.1 km
速度 7.62 km/s
衛星直下点 -40.08°S, 17.61°W
打ち上げ日 Feb 15, 2024
運用期間 2.2 years
タイプ internet

技術仕様

分類 Payload
質量 730.00 kg
乾燥質量 700.00 kg
総質量 730.00 kg
長さ 0.30 m
直径 4.10 m
スパン 29.00 m
形状 Box + pan
製造者 SPXS
バスタイプ Starlink V2M
フェーズステータス In Orbit
所有者/国 SPXS/US

Most Searched